Wind_Speed
42 42 42 42 41 40 39 39 39 38 38 38 38 37 37 37 36 36 37 38 38 39 39 38 37 36 37 37 38 38 38 39 39 38 38 38 38 38 37 37 37 37 37 37 38 37 36 35 35 35 36 36 36 35 35 34 33 33 31 30 30 30 30 31 31 31 33 36 37 36 37 38 39 39 39 40 40 40 39 38 39 39 39 39 40
41 41 41 41 41 40 39 39 39 39 39 39 39 38 38 37 37 38 39 39 40 40 40 38 37 37 37 37 38 38 38 38 38 38 37 37 37 37 37 37 36 36 36 36 37 36 36 35 36 36 37 37 37 36 35 34 34 33 31 30 30 30 30 31 31 32 35 37 37 36 37 39 39 38 38 39 38 37 37 37 38 38 38 38 39
40 41 41 41 41 40 40 39 39 40 40 40 40 39 39 39 39 39 40 41 41 41 40 38 37 37 37 38 38 38 38 38 37 37 37 36 36 37 37 36 36 37 36 36 36 37 36 36 36 37 38 38 37 35 35 34 34 33 31 30 31 31 31 31 31 33 36 37 37 37 38 38 38 38 38 38 37 36 36 36 36 37 37 37 37
40 41 41 41 41 41 41 40 40 40 40 40 40 40 40 40 40 40 40 41 41 40 39 37 37 37 38 38 39 39 39 39 38 38 37 36 36 37 38 37 37 38 37 36 36 37 37 36 36 38 38 37 36 35 35 34 34 32 31 31 31 31 31 31 32 34 36 37 37 37 37 38 38 38 37 37 37 36 35 35 35 36 37 36 36
34 37 39 40 41 42 42 42 41 41 41 41 41 42 42 41 40 39 40 40 39 38 37 36 37 38 38 39 39 39 39 39 39 39 37 37 37 38 39 40 39 37 35 34 35 36 37 36 37 38 38 37 36 35 35 34 33 32 31 31 31 32 31 32 34 36 37 37 37 37 37 37 38 37 37 37 36 35 34 34 34 35 36 35 34
26 28 31 34 36 38 39 40 40 40 41 41 41 41 41 39 39 38 37 36 35 35 35 36 37 38 38 39 39 40 40 40 41 39 35 36 39 40 39 38 37 36 35 37 37 35 35 36 37 38 38 37 36 36 35 34 33 32 32 32 32 32 32 33 35 36 37 37 37 37 37 37 38 37 37 37 36 35 33 32 33 34 34 34 33
23 24 26 28 30 32 33 35 36 36 37 38 38 38 37 36 36 35 34 34 33 34 35 36 37 38 39 40 40 41 41 40 40 37 33 36 40 40 36 34 36 38 40 43 41 35 33 35 37 38 38 37 37 36 35 34 33 33 33 33 33 33 34 35 36 37 37 38 38 38 38 38 38 37 37 37 37 35 33 32 31 31 32 33 32
23 24 25 27 28 29 30 31 32 32 33 33 33 33 33 33 33 32 32 33 33 34 35 36 38 39 40 40 40 40 40 38 37 35 32 34 37 36 30 30 38 43 45 45 39 34 33 35 37 38 38 37 37 36 35 34 34 34 34 34 34 34 35 36 37 37 38 38 38 38 38 38 38 38 37 37 37 35 33 32 31 31 31 32 31
23 24 25 26 27 28 28 28 29 29 29 29 29 29 30 29 30 29 30 30 31 32 33 34 35 36 36 36 36 36 36 35 34 32 30 32 35 32 26 30 41 45 42 39 36 34 34 35 36 37 37 37 36 36 35 34 34 35 36 35 35 35 36 37 37 38 38 39 38 38 39 39 38 38 38 37 36 33 32 32 32 31 30 31 32
22 23 23 24 24 24 24 24 24 24 24 24 24 25 25 25 26 26 26 27 27 28 29 29 30 30 31 31 31 31 31 31 31 28 29 35 38 34 28 29 35 35 34 36 37 36 33 32 34 36 36 36 36 35 35 35 35 37 37 36 36 37 37 37 38 38 39 39 39 39 39 39 39 39 38 37 34 32 31 32 31 31 31 31 33
21 20 20 20 19 19 19 20 20 21 21 21 22 22 23 23 24 25 25 25 26 26 25 25 25 25 26 26 26 27 27 28 27 25 29 36 38 33 28 27 29 31 34 37 35 32 29 30 32 34 35 36 35 35 36 36 37 38 38 38 38 38 38 38 38 38 39 39 39 40 40 40 40 39 38 36 33 31 31 31 31 31 31 32 33
19 19 19 18 18 19 19 20 21 21 22 22 22 23 23 24 24 25 26 25 26 25 24 24 23 22 23 23 23 24 24 25 26 26 28 31 30 25 22 25 31 36 37 34 30 28 28 28 30 33 35 35 36 36 37 37 38 39 39 39 38 38 38 38 39 39 39 39 40 41 40 40 40 40 39 36 33 31 31 31 31 32 32 33 34
21 21 20 20 20 21 22 23 23 23 23 23 23 23 23 24 24 25 25 24 24 24 23 23 22 22 21 21 21 22 22 24 25 26 26 24 22 20 21 24 29 32 32 30 28 28 27 27 30 32 34 36 37 38 38 39 40 40 40 40 39 38 39 39 39 39 39 40 41 41 40 40 41 41 40 36 32 31 31 31 32 32 32 33 35
26 25 24 23 23 23 24 25 25 25 25 25 24 24 24 23 23 22 22 22 21 21 21 21 21 20 20 20 21 21 22 23 24 24 24 21 20 23 26 27 29 30 31 30 29 28 28 29 31 33 35 37 38 39 39 40 41 42 41 40 39 39 40 40 40 39 40 41 42 41 41 41 42 43 41 36 32 31 32 32 32 32 32 33 36
30 29 28 27 27 26 26 26 26 26 26 26 24 23 22 21 19 19 18 18 18 18 18 19 19 19 19 20 21 21 22 23 23 23 23 22 22 27 29 30 31 33 34 33 31 30 29 30 32 34 36 38 39 40 41 42 43 43 41 40 40 40 41 41 40 40 41 43 42 42 43 43 44 44 42 37 33 32 32 33 33 33 33 34 36
33 32 31 30 29 28 28 27 27 28 27 25 22 20 18 18 17 17 17 17 17 18 18 19 19 20 20 20 21 22 22 23 24 24 24 23 25 29 32 32 34 35 36 35 32 29 28 30 32 34 37 39 41 42 43 43 44 43 42 41 41 41 42 42 41 42 43 43 42 42 44 45 45 45 42 37 34 33 33 33 33 34 34 35 36
35 34 32 31 30 28 27 27 27 27 24 22 20 19 19 19 19 19 19 20 21 22 22 23 23 23 23 22 22 21 22 23 24 24 25 24 25 29 32 33 33 33 31 30 28 27 28 30 33 35 38 40 42 43 44 44 44 43 43 43 42 43 43 42 43 44 44 44 43 43 45 46 47 45 41 38 35 33 33 34 34 34 35 35 36
39 38 36 34 31 29 27 27 26 24 22 21 20 20 21 21 21 22 22 23 24 25 26 26 25 24 24 23 22 21 21 22 22 22 24 24 23 23 25 27 27 27 28 29 30 32 33 34 36 38 40 42 43 45 45 45 45 44 44 43 43 44 44 44 45 45 45 45 45 44 46 49 47 43 41 39 35 34 34 35 35 35 35 36 37
39 38 37 36 34 31 29 27 24 23 21 21 21 21 22 23 24 25 25 26 27 27 27 26 25 23 22 21 21 21 21 22 22 22 23 24 24 24 25 27 29 31 33 34 35 36 37 38 40 41 41 43 44 45 45 45 45 45 44 44 45 44 45 46 46 46 46 47 46 45 48 50 47 42 40 39 35 34 35 35 36 36 36 37 38
32 32 33 34 33 31 28 26 24 23 22 21 22 22 24 25 27 27 28 28 27 27 25 24 23 21 20 19 20 20 21 22 22 22 23 26 28 29 31 33 34 35 35 36 37 38 39 40 41 41 42 43 44 45 46 46 45 45 45 45 45 45 47 48 48 47 48 48 47 47 49 49 46 43 40 38 36 35 36 36 36 37 38 38 39
25 26 28 31 31 28 27 25 24 23 23 23 23 24 26 28 28 29 28 27 26 24 23 22 21 21 21 21 22 22 23 24 24 25 28 30 32 33 34 35 35 36 37 37 38 39 39 40 41 42 43 44 44 45 46 46 46 46 45 45 45 46 48 49 48 48 49 48 48 48 47 48 47 43 39 37 36 36 36 37 37 38 39 39 40
21 22 26 29 30 27 25 25 24 23 24 24 25 27 28 28 29 28 27 25 23 22 22 22 22 22 22 23 23 24 25 26 28 29 31 32 34 35 35 36 36 37 38 38 38 38 39 40 41 42 43 44 45 46 47 47 47 47 46 46 47 48 50 49 49 49 49 49 48 47 46 47 46 42 38 36 34 34 36 37 38 39 40 40 41
17 20 23 27 29 27 24 24 24 24 25 26 27 27 27 27 27 26 24 23 22 22 22 23 23 23 24 24 24 25 26 26 27 29 31 32 34 35 36 36 36 37 38 38 38 38 39 40 42 43 44 45 46 48 48 49 49 48 47 47 48 49 50 49 49 49 49 48 48 47 46 46 44 42 41 38 34 34 35 37 38 39 40 41 41
14 16 20 25 27 27 25 25 25 26 26 26 27 27 26 26 25 24 23 23 22 22 23 23 24 24 24 24 24 25 25 25 26 28 29 31 33 33 34 35 36 36 37 37 37 37 38 40 41 43 45 46 47 49 50 50 50 49 48 47 48 50 50 48 48 49 49 48 47 46 45 44 43 43 44 41 39 37 38 39 40 40 40 40 41
14 15 18 22 24 26 26 26 26 27 26 26 26 25 25 25 24 24 23 23 22 22 23 23 24 24 23 23 23 23 23 24 25 26 28 29 31 32 34 35 35 36 37 37 37 37 38 39 40 42 44 46 47 49 50 50 49 48 48 47 48 49 49 48 48 48 49 48 47 46 45 45 45 46 46 44 43 42 42 43 43 43 42 41 41
17 18 19 22 24 25 26 26 26 26 25 25 25 24 24 23 23 22 21 21 21 21 21 21 21 21 21 21 22 22 23 25 26 28 30 31 32 34 35 37 37 38 38 37 37 37 38 38 39 41 43 45 47 48 49 50 49 49 49 48 48 49 49 48 48 48 48 48 48 47 47 47 47 47 47 47 46 45 45 45 45 45 43 43 42
20 21 22 23 24 25 25 25 25 24 23 23 22 21 21 21 20 20 19 19 20 19 19 20 20 21 22 23 24 26 27 28 30 31 31 31 31 32 33 34 36 37 37 38 38 38 38 38 39 41 43 45 47 49 50 51 51 51 51 50 49 49 49 48 47 47 47 48 49 49 49 50 49 48 48 49 48 47 47 46 46 45 44 44 43
21 22 22 23 23 23 23 23 22 21 21 20 19 19 19 19 19 19 19 19 20 20 21 22 23 24 25 27 28 29 29 30 31 30 30 30 30 30 31 32 33 34 35 37 38 38 38 38 39 40 42 44 46 49 51 52 53 53 52 51 50 50 50 49 48 47 47 48 49 50 51 51 51 50 50 51 50 49 48 47 46 45 45 44 43
21 21 21 21 21 21 21 21 20 19 19 19 19 19 19 19 19 20 20 21 21 22 24 25 26 28 29 29 30 29 29 30 30 30 29 29 29 29 30 30 31 32 33 35 37 38 38 38 38 39 41 42 44 47 49 51 53 54 54 53 53 53 52 51 49 48 48 48 50 51 51 52 53 53 53 52 51 51 50 49 47 46 45 43 43
19 19 20 20 21 21 21 20 20 19 19 19 19 19 19 19 20 21 22 23 24 25 26 27 28 29 29 29 30 29 29 29 29 30 30 29 29 30 30 31 32 33 34 35 36 37 38 38 39 40 41 42 42 44 46 49 52 53 54 54 55 55 54 53 52 50 50 50 50 51 53 54 55 55 54 54 53 53 52 50 47 46 44 43 43
19 20 21 21 21 21 20 20 19 19 19 19 19 20 21 21 22 23 24 25 26 26 27 27 28 28 29 29 30 31 30 30 30 31 32 32 32 32 32 33 34 35 35 37 38 39 39 40 41 41 41 41 41 41 43 46 48 50 52 53 54 55 56 56 55 54 53 53 53 53 54 54 56 56 55 55 55 55 53 50 48 46 45 44 44
21 22 22 22 22 21 20 20 20 20 20 21 21 22 23 23 24 25 25 26 27 27 27 27 28 29 30 31 32 33 33 33 33 33 34 34 34 35 35 35 36 36 37 39 40 40 41 41 41 41 40 40 40 40 42 44 45 47 50 53 55 56 57 58 57 57 58 57 57 57 56 55 55 56 56 57 57 56 54 52 50 49 47 46 46
23 23 23 23 23 22 22 22 22 22 22 23 23 24 24 25 25 26 26 26 27 28 29 30 31 32 32 33 34 35 36 37 37 37 36 36 36 36 37 37 37 38 39 40 41 41 41 41 42 41 41 42 42 42 43 44 45 47 49 52 53 55 56 57 58 59 59 59 59 59 58 56 56 56 57 57 58 57 56 55 53 52 50 48 47
24 24 24 24 23 23 23 23 23 23 24 24 25 25 26 26 26 27 27 28 29 30 31 32 33 34 35 36 38 38 39 39 39 39 38 38 38 38 39 39 39 40 40 41 42 42 42 43 43 43 44 45 45 46 47 47 48 49 50 51 52 53 55 56 58 59 59 59 59 59 59 58 57 57 58 58 59 58 58 56 55 53 51 49 47
25 25 25 25 25 24 25 24 24 25 25 25 26 26 26 26 27 28 29 30 31 32 33 33 35 37 38 40 41 42 42 42 42 42 41 41 41 41 41 40 41 41 42 43 43 44 44 45 45 45 46 47 48 49 50 51 51 52 52 53 54 54 55 57 57 57 57 57 58 58 58 57 58 58 58 59 59 58 57 56 54 53 51 49 47
26 26 26 26 26 26 26 26 26 26 27 27 27 27 27 28 28 29 30 31 32 33 35 36 38 40 42 43 44 44 45 45 45 44 44 43 43 42 42 42 42 43 44 44 45 45 46 46 46 47 47 48 49 50 51 52 52 53 53 54 55 56 56 57 57 57 57 56 56 55 54 54 54 55 56 57 57 56 55 54 53 52 50 48 45
27 27 27 27 27 27 28 28 28 28 28 28 28 28 29 29 30 31 32 33 34 35 37 39 41 43 44 45 45 45 45 45 45 44 44 44 43 43 43 43 44 44 44 45 46 47 47 47 48 48 49 49 50 50 51 52 52 52 53 53 54 55 55 56 56 57 57 57 56 54 53 52 51 51 52 52 53 52 52 52 51 50 48 46 44
28 28 28 28 29 29 29 29 30 29 30 30 30 31 31 32 33 33 34 35 37 38 40 42 44 45 45 45 45 44 44 43 43 43 43 43 43 44 44 45 45 46 46 46 47 48 48 49 49 50 51 51 51 51 51 52 52 52 53 53 53 54 54 54 54 54 54 54 54 53 52 51 50 49 49 48 48 48 48 48 48 48 47 45 43
30 31 30 31 31 31 31 31 31 31 31 32 32 33 34 34 35 36 37 38 40 42 43 45 46 46 45 44 43 43 42 42 42 42 42 43 44 45 45 46 47 47 47 47 48 48 49 49 50 50 51 51 51 51 51 51 52 52 52 52 53 53 53 53 53 53 53 52 52 51 50 49 48 47 46 46 45 46 46 46 46 46 45 44 42
33 33 33 33 33 33 33 33 33 33 34 34 34 35 36 36 37 38 39 41 42 44 46 47 47 46 45 44 44 43 43 42 43 43 43 44 45 45 46 47 47 48 48 48 48 49 49 49 49 50 50 50 51 51 51 51 51 52 52 52 52 52 52 52 52 52 52 51 51 50 50 49 47 46 45 45 44 44 45 45 45 45 44 43 41
35 35 35 35 35 35 35 35 35 36 36 36 37 37 38 39 40 40 42 44 46 47 48 47 47 46 45 45 45 45 45 45 45 45 45 46 46 46 46 47 48 48 49 49 49 49 50 50 50 50 50 51 51 51 52 52 52 52 52 52 52 52 52 52 51 51 50 50 50 50 49 48 47 46 44 44 44 44 45 44 44 45 44 42 41
37 37 37 37 37 37 37 37 37 37 37 38 38 39 40 41 42 43 45 47 48 48 48 47 46 46 46 46 46 46 47 47 47 47 47 47 47 47 47 48 48 49 49 50 50 51 52 52 52 52 52 52 53 53 53 53 53 53 53 53 53 52 52 51 50 50 50 49 49 49 48 47 46 45 44 43 43 43 44 44 45 45 44 42 40
39 39 38 38 38 38 38 38 38 38 39 39 40 41 42 43 45 46 48 49 48 47 46 46 46 46 46 46 47 47 48 48 48 49 49 48 48 49 49 49 50 50 50 51 52 52 53 54 54 54 54 54 54 55 55 55 55 55 55 55 54 53 52 52 51 50 50 50 49 49 48 48 47 45 44 43 42 42 43 43 44 45 44 42 40
39 39 39 39 39 39 39 39 39 39 40 41 41 42 44 46 47 48 48 47 46 45 45 45 45 46 46 47 47 48 48 49 49 49 49 49 50 50 51 51 52 52 52 53 54 54 56 56 57 57 57 57 56 57 57 56 56 56 56 55 55 54 53 52 51 50 50 50 50 49 48 48 47 46 45 43 42 42 42 42 43 44 43 42 39
39 39 39 39 39 39 39 39 39 40 41 42 44 45 47 47 48 47 46 45 45 44 44 45 45 46 46 47 47 48 48 49 49 49 50 50 51 52 52 53 54 54 55 55 56 57 58 59 60 60 60 60 59 59 58 58 58 57 57 56 56 55 53 52 51 51 51 50 49 48 47 47 46 46 45 44 42 41 40 41 42 43 43 41 39
40 40 40 39 39 39 39 40 40 41 43 44 46 46 46 46 45 44 44 44 44 44 45 46 46 47 47 48 48 48 49 49 50 51 51 52 53 53 54 55 55 56 56 57 57 58 59 60 61 62 62 62 62 62 61 60 59 58 58 57 57 55 54 53 53 52 51 50 49 48 47 46 46 45 45 44 42 41 40 40 42 43 42 40 37
41 41 40 40 40 40 40 41 42 43 43 44 45 44 44 43 43 43 43 44 44 45 46 46 47 48 48 48 49 49 50 50 51 51 52 52 53 53 54 54 54 54 55 55 55 55 55 56 57 58 59 60 61 61 62 61 61 59 58 57 56 55 54 53 53 52 51 50 49 48 47 46 45 45 45 45 44 41 40 40 41 41 40 38 36
41 41 41 40 40 40 41 41 42 42 42 42 42 42 42 42 42 43 43 44 45 46 46 47 48 48 49 49 50 50 50 50 51 51 51 51 51 52 52 51 51 51 50 50 50 50 50 51 51 52 53 54 55 56 57 59 60 59 58 57 55 54 54 53 52 51 50 50 49 48 47 46 46 45 45 45 44 42 40 39 40 40 38 36 36
42 41 41 41 41 40 40 40 40 40 40 40 40 41 41 42 42 43 44 45 46 46 47 48 48 49 49 49 49 49 49 49 49 49 50 50 49 49 49 48 48 48 48 48 48 48 48 48 49 50 50 51 51 52 52 53 55 57 57 57 56 55 54 53 52 51 51 50 49 48 48 48 47 46 45 45 44 41 39 38 38 38 37 36 36
42 42 41 41 40 39 39 39 39 39 39 39 40 41 42 43 44 44 45 46 46 47 47 48 48 48 48 48 48 48 48 49 49 49 48 48 47 47 47 47 47 47 48 48 48 48 49 49 50 51 51 52 52 52 51 51 51 52 53 54 55 54 54 53 53 52 52 51 50 50 49 49 49 47 45 44 42 40 38 38 38 38 37 36 35
41 40 40 39 38 38 38 38 38 38 39 40 41 42 43 44 44 45 45 46 46 46 47 47 47 47 47 48 48 48 48 48 48 47 46 46 46 47 47 48 48 49 49 49 49 49 50 51 51 52 52 53 52 52 52 51 50 50 50 51 51 52 52 53 52 52 52 51 51 50 50 50 49 47 44 41 39 38 37 37 37 37 36 35 34
Wind_Direction
257 258 260 262 263 264 265 266 267 268 269 270 272 274 275 275 275 274 273 274 275 276 277 278 279 279 279 279 278 278 278 278 278 278 278 278 278 278 277 276 275 275 274 274 275 275 273 270 266 262 259 257 257 256 257 258 259 261 263 267 272 275 279 284 288 294 300 305 307 308 312 315 317 319 322 323 323 322 319 318 317 318 319 321 323
258 259 259 261 263 264 265 266 268 269 270 271 272 274 275 276 275 274 273 273 274 274 275 276 276 278 279 279 279 279 279 279 279 279 278 278 279 279 278 277 276 276 275 274 275 274 272 269 264 261 258 256 256 255 257 258 259 262 265 269 273 277 281 285 290 296 302 304 305 308 312 314 316 319 322 322 322 320 317 317 316 317 319 321 322
258 258 259 260 262 264 265 267 269 270 271 271 271 273 275 276 276 275 274 273 273 273 273 273 273 276 278 278 279 279 279 280 279 280 280 280 280 279 279 278 278 278 277 275 274 273 271 268 263 260 257 255 255 255 257 258 260 262 266 270 274 278 283 286 291 298 302 302 304 308 311 313 316 319 321 322 320 318 316 315 315 317 319 320 321
259 259 260 261 262 263 265 267 269 271 272 272 272 273 276 276 275 276 275 273 271 271 270 270 272 275 277 277 279 279 280 281 281 280 280 280 279 279 280 280 280 279 278 276 274 273 270 266 261 257 255 254 254 256 257 259 261 263 267 271 276 280 284 287 293 298 300 301 304 308 311 313 316 319 321 321 319 317 315 315 315 316 318 320 321
263 262 262 262 263 265 266 267 269 271 273 273 273 274 275 275 274 275 275 273 271 270 269 270 273 275 277 278 279 280 280 281 280 280 280 280 280 280 281 282 283 282 280 280 281 275 267 261 257 254 253 253 254 256 257 259 262 265 269 273 277 281 284 288 294 298 298 300 304 308 310 313 316 319 321 320 318 316 315 314 314 316 318 319 321
266 265 265 264 265 266 267 268 269 271 272 273 273 273 274 274 273 274 273 272 271 270 271 272 275 277 278 279 279 279 280 279 279 280 277 273 276 281 282 284 286 284 284 287 288 278 263 257 254 251 251 252 253 255 257 259 263 267 270 274 277 281 284 290 295 296 297 300 305 308 310 313 316 318 320 319 317 315 313 313 314 316 317 318 321
267 267 267 267 266 267 267 268 269 271 272 272 273 273 273 273 274 274 274 274 273 273 274 275 277 278 278 278 278 279 279 278 279 281 273 265 273 281 282 279 272 270 276 285 285 275 262 257 253 251 251 251 253 256 258 261 265 268 271 275 278 281 285 291 294 295 297 301 305 307 309 312 315 318 319 318 316 313 312 312 313 314 316 318 321
265 265 265 265 265 266 267 268 269 270 271 272 272 272 272 273 273 274 274 275 275 275 276 276 276 277 276 277 277 277 277 277 278 279 273 268 275 281 277 265 258 260 269 279 281 274 264 258 253 251 251 252 254 257 259 262 266 269 272 275 278 282 287 291 293 294 298 302 304 306 309 311 315 317 319 317 314 312 311 311 313 315 316 319 321
264 262 261 261 262 264 265 266 268 269 270 271 271 271 272 273 273 274 274 275 276 276 277 277 277 278 278 278 278 277 278 278 278 278 275 273 279 281 269 255 256 261 267 275 280 277 268 258 252 251 251 252 255 258 261 264 267 270 273 275 278 283 287 290 292 294 298 302 304 306 308 311 314 317 318 315 312 309 309 311 314 317 318 320 321
264 262 260 260 261 262 265 266 268 270 271 273 274 275 276 276 276 276 276 277 277 277 279 280 280 281 281 280 280 279 279 279 279 275 267 267 273 278 271 261 261 264 267 272 277 277 267 256 252 251 252 254 257 260 263 266 268 270 273 276 280 284 287 289 292 295 299 301 303 305 307 309 312 316 317 313 308 306 307 311 315 318 320 320 320
261 261 260 261 262 263 266 268 270 273 275 277 278 279 281 281 281 281 279 279 279 278 279 280 280 281 282 282 282 281 280 279 278 268 256 258 268 275 277 274 272 272 271 272 274 271 262 254 252 252 253 256 259 262 265 267 269 271 274 277 281 284 287 290 292 296 299 300 303 305 306 308 311 315 315 310 305 303 306 310 315 318 320 320 319
259 260 261 263 265 266 269 271 273 276 277 279 281 282 283 283 282 282 281 280 280 279 280 281 281 282 283 284 285 284 281 279 277 270 261 261 267 271 271 267 267 270 271 271 271 268 261 255 253 253 255 258 260 263 265 267 270 272 275 279 282 285 287 290 292 296 298 299 302 303 304 306 310 314 313 307 301 301 304 309 314 318 320 319 319
261 262 264 267 269 270 273 274 276 278 280 281 283 284 285 284 283 282 281 281 281 281 282 283 283 285 287 289 288 287 284 279 277 274 268 264 265 271 273 270 271 276 277 274 273 270 263 257 255 256 257 259 262 264 267 269 271 273 276 279 282 285 287 289 292 295 297 298 300 301 302 305 309 312 311 303 297 298 302 308 313 316 318 318 318
265 264 265 267 269 272 275 277 279 280 281 282 283 284 284 282 281 281 281 283 284 285 285 286 287 289 292 294 295 293 289 284 280 276 269 264 265 273 277 277 281 286 286 283 280 274 267 261 258 258 260 262 264 266 268 270 272 274 277 280 282 285 287 289 292 293 295 297 298 300 302 304 306 310 309 302 295 295 300 305 310 313 315 316 317
267 267 267 268 270 272 275 278 280 280 280 281 281 281 279 279 280 283 286 289 291 292 293 293 295 296 298 300 300 299 296 290 285 280 274 267 265 267 269 271 277 283 285 285 284 278 270 264 261 261 262 264 266 268 269 271 273 275 278 280 282 284 286 289 291 292 294 295 296 299 301 302 304 308 308 301 294 293 296 302 306 309 312 314 315
268 269 270 271 272 274 277 278 278 278 278 278 277 276 277 280 285 288 291 295 297 300 301 301 302 302 301 301 300 299 297 293 288 283 277 266 257 255 257 263 270 276 279 283 285 282 275 270 267 267 267 267 268 269 270 272 274 276 278 280 282 284 287 289 290 291 292 293 295 299 300 300 303 307 306 300 293 290 292 298 302 305 309 312 314
267 269 272 274 275 276 278 278 276 274 273 271 271 274 279 284 288 289 291 294 296 298 299 298 297 295 294 294 293 292 292 292 289 285 281 275 262 254 256 263 271 277 280 283 285 282 278 275 272 271 269 268 268 269 270 273 275 276 278 280 282 285 287 288 289 290 290 292 295 298 297 298 303 306 304 299 293 288 288 293 298 302 307 311 313
267 269 271 273 274 275 276 275 272 267 265 266 271 278 283 287 290 291 291 293 294 294 294 292 290 288 286 286 287 287 289 290 291 289 288 287 281 271 269 272 276 279 281 283 283 282 280 276 273 271 269 267 267 268 271 273 275 277 279 281 283 285 286 287 287 288 289 292 294 295 295 298 303 305 302 298 293 286 285 290 295 299 304 309 312
270 269 269 268 269 270 268 265 261 258 260 266 273 279 284 287 290 290 290 290 288 287 286 285 284 281 281 283 286 288 290 289 290 290 288 287 284 280 278 278 279 280 281 282 282 281 278 274 272 270 268 267 268 270 272 274 276 278 279 280 282 284 284 284 285 287 289 290 291 292 294 298 302 304 301 297 291 284 283 288 293 297 301 306 311
270 268 264 260 258 258 256 252 250 253 259 266 271 277 282 285 286 286 285 284 282 280 279 279 280 279 281 283 285 287 286 285 286 286 284 283 282 281 280 280 280 280 280 280 279 277 275 272 270 268 267 268 269 271 273 275 276 277 278 279 281 281 281 282 285 287 288 289 290 292 295 299 302 303 302 299 291 283 281 285 291 295 299 303 307
265 261 255 248 245 245 246 246 249 254 260 265 271 276 279 281 282 281 280 278 277 277 278 280 282 284 286 285 284 283 281 281 281 281 281 282 281 281 280 279 279 278 277 277 276 275 274 272 269 267 266 267 268 270 272 273 274 275 276 277 278 278 279 282 285 287 288 289 290 293 296 298 300 302 304 301 292 283 281 285 290 293 297 301 304
258 252 246 240 237 239 244 247 252 258 263 267 272 275 276 278 277 277 275 274 275 277 279 281 282 283 284 283 281 281 279 279 279 279 279 279 279 279 278 278 279 278 278 277 276 275 273 270 267 265 264 265 266 268 270 271 272 273 274 275 277 277 280 283 285 287 288 289 291 294 295 297 299 302 305 303 294 286 284 286 289 293 295 298 301
254 246 240 235 235 239 247 252 257 262 265 268 271 272 273 273 273 272 271 272 274 276 277 279 279 279 279 279 279 280 279 278 277 277 277 277 277 277 278 278 278 278 278 278 277 275 273 270 268 266 264 264 265 267 269 270 271 273 274 275 277 278 280 283 285 286 287 288 291 293 294 296 299 301 302 302 296 290 289 289 290 293 294 296 299
253 244 237 234 236 242 250 255 259 261 263 265 266 267 268 269 269 269 269 269 271 272 274 276 277 278 279 280 281 283 283 283 282 281 281 280 280 281 280 280 279 278 277 277 276 275 274 272 270 268 267 266 267 268 270 271 272 274 276 277 278 280 281 283 284 284 285 287 290 292 293 296 297 297 298 299 296 293 293 293 293 295 296 298 300
251 243 237 236 239 244 249 253 256 257 258 260 261 263 265 266 267 268 268 269 270 272 274 277 278 279 282 283 285 286 287 287 287 286 286 285 285 285 284 283 282 281 280 279 277 275 274 273 271 271 270 270 270 271 272 274 275 277 277 277 278 279 280 281 282 283 286 288 290 292 293 293 293 293 295 296 295 294 294 295 296 297 297 299 300
248 244 241 241 243 245 248 251 253 254 255 257 259 261 263 264 266 268 269 272 274 276 279 281 281 283 284 284 285 286 287 288 288 287 288 289 288 288 287 286 286 285 284 284 282 280 277 274 272 272 272 272 272 273 274 275 276 277 277 277 277 278 279 281 282 284 286 287 288 289 290 289 289 290 292 293 294 294 294 294 295 296 296 298 299
248 247 246 245 246 247 248 250 251 252 253 254 256 258 259 261 264 267 269 272 275 277 279 281 281 282 283 284 285 286 287 288 288 289 290 291 291 291 290 289 288 288 287 287 286 285 282 278 275 273 273 273 274 274 275 276 276 277 277 277 277 277 278 280 281 282 284 285 286 286 286 286 287 288 288 289 291 292 292 293 294 294 295 295 296
249 247 246 245 246 246 247 247 248 248 249 251 252 255 257 260 264 267 269 272 274 276 277 279 280 282 283 285 286 288 289 290 291 293 294 295 294 293 291 290 289 288 288 288 288 287 286 284 281 279 277 277 276 276 276 276 276 276 275 275 275 275 276 277 279 280 282 282 282 282 283 283 285 285 286 286 288 290 290 291 292 293 293 292 293
246 244 243 243 243 243 243 244 245 246 249 252 254 257 260 263 266 269 271 273 275 277 278 280 282 284 286 288 289 291 293 294 296 298 298 298 297 295 292 290 288 287 287 287 286 287 287 287 287 285 283 281 279 278 278 278 277 276 275 275 275 275 275 276 277 278 278 278 278 279 280 281 282 282 283 284 286 288 289 290 291 291 290 290 291
243 243 243 243 244 245 246 247 250 253 255 257 260 262 264 267 269 270 272 273 276 278 280 282 285 287 289 292 295 297 298 298 299 300 299 297 296 294 291 290 287 286 285 284 284 284 284 286 286 286 284 283 281 281 281 281 280 280 280 280 279 277 276 274 274 274 274 274 275 276 277 278 279 280 282 283 284 285 287 289 290 289 288 288 290
247 248 248 249 250 251 252 254 255 257 258 259 261 263 264 266 268 270 273 275 277 279 281 284 288 292 294 297 298 299 299 298 297 297 297 296 295 293 291 289 288 286 285 284 284 284 284 284 285 284 284 283 283 282 282 282 282 283 283 282 281 280 278 276 274 272 272 272 272 272 273 275 277 279 280 281 282 284 286 287 288 287 286 287 289
249 250 251 252 253 253 254 255 255 255 257 259 261 263 265 268 270 273 276 278 280 283 286 290 294 296 297 298 298 299 298 297 297 296 296 295 294 293 291 290 288 286 286 285 285 285 284 284 284 284 285 284 283 282 281 281 282 282 282 282 282 281 281 280 277 275 274 274 273 272 272 273 275 276 277 279 280 282 284 284 284 284 285 287 288
249 250 251 252 252 253 253 254 254 257 259 261 264 266 269 271 273 276 278 281 285 288 291 293 295 295 297 298 298 298 298 297 297 296 295 294 292 291 290 289 287 286 285 285 284 283 282 281 281 281 282 282 281 280 279 279 279 279 279 281 282 282 283 282 280 279 279 277 276 275 274 273 273 274 275 276 278 279 280 281 282 283 284 286 287
251 251 252 252 252 253 253 254 257 259 261 264 266 269 271 274 277 280 283 286 289 290 291 292 294 296 297 298 299 298 297 296 295 294 292 290 289 289 289 288 286 285 284 283 283 282 281 280 280 280 280 280 280 280 280 279 279 278 278 279 280 280 281 281 281 282 282 280 278 277 277 275 274 274 274 275 276 278 279 280 281 283 284 285 285
251 251 251 252 252 252 253 255 258 260 263 265 267 270 273 276 279 283 285 287 289 290 291 294 296 297 298 299 299 298 297 295 293 292 290 289 288 288 287 286 285 284 283 283 282 282 281 281 281 281 281 281 281 281 280 280 280 280 279 279 279 279 280 280 282 283 284 283 282 281 280 278 278 277 277 277 278 279 280 281 282 283 284 284 283
250 250 250 250 251 252 254 256 259 260 263 265 268 271 274 277 279 282 284 286 288 290 292 294 295 296 297 298 298 297 296 294 293 292 291 290 290 289 288 287 285 285 284 284 283 283 282 282 282 282 282 281 281 281 281 281 281 281 280 280 280 279 279 280 281 282 283 284 285 285 285 284 283 282 281 281 282 282 283 283 283 283 283 282 280
249 249 250 250 252 253 255 257 259 261 264 266 269 272 275 277 279 281 282 284 286 288 290 293 294 296 297 297 297 296 295 294 293 292 292 291 291 290 289 288 287 287 286 286 285 285 284 284 284 284 283 283 282 282 282 282 282 281 281 281 281 281 281 280 280 281 281 282 283 284 285 286 286 285 284 284 284 284 284 283 283 282 281 279 277
251 252 252 253 254 256 257 259 261 263 265 268 270 272 274 277 279 280 282 284 286 288 290 293 295 296 297 296 296 295 294 293 293 292 292 291 291 291 290 289 289 288 287 287 286 286 286 286 286 285 285 284 284 284 283 283 282 282 282 282 282 282 282 282 282 282 282 282 283 283 283 283 283 283 283 282 282 282 282 281 280 279 277 276 274
254 255 255 256 257 258 259 261 263 264 266 268 270 272 274 277 279 280 282 284 286 289 291 293 295 296 296 296 295 294 292 292 291 291 291 291 291 291 291 290 290 290 289 288 288 287 287 287 286 286 286 286 285 285 285 284 283 283 283 282 282 282 282 283 283 283 283 284 284 284 283 282 281 281 280 280 279 279 279 278 277 276 274 273 272
255 256 257 257 258 259 261 262 264 265 266 268 271 273 275 277 278 280 282 284 287 290 293 294 295 295 295 295 294 293 292 292 291 291 291 290 290 290 290 290 290 290 290 289 289 289 288 288 288 287 287 287 287 287 286 286 285 285 284 284 284 283 283 283 283 283 283 283 283 282 282 281 280 279 278 277 277 276 276 275 274 273 272 271 270
256 257 257 258 259 260 261 262 264 265 267 269 271 273 275 276 278 280 283 286 290 291 292 293 293 293 294 294 294 293 292 292 292 291 291 291 291 291 290 290 290 290 290 290 290 290 290 290 289 289 289 288 288 288 287 287 287 287 286 286 285 285 284 284 283 283 283 282 282 281 281 280 280 279 278 276 275 274 273 273 272 272 271 269 268
256 257 257 258 259 259 261 262 264 266 268 270 271 273 275 277 279 282 285 288 290 290 290 291 291 292 292 292 292 292 292 292 292 292 292 292 292 292 292 292 292 292 292 292 292 291 291 291 290 290 289 289 288 288 287 287 287 287 286 286 286 285 285 284 284 283 282 281 281 280 280 280 280 280 279 277 275 273 273 272 272 271 270 268 267
254 255 256 257 258 260 261 263 265 267 269 270 272 274 276 278 281 284 286 288 288 288 289 290 290 290 291 291 291 291 291 291 291 292 292 293 293 293 294 294 294 294 294 293 293 292 292 291 291 290 289 289 288 287 287 287 286 286 286 286 285 285 285 284 284 283 282 281 280 280 280 280 280 280 279 277 275 273 272 271 271 270 268 267 265
253 255 256 257 259 261 263 264 266 268 270 272 274 276 278 281 284 286 287 287 288 288 288 289 289 289 289 289 290 290 290 291 291 292 293 293 294 294 294 294 294 293 293 293 292 292 291 291 290 290 289 288 288 287 286 286 286 285 285 285 285 285 284 284 284 283 282 281 281 280 280 280 279 279 279 277 275 272 270 269 269 268 266 265 263
253 255 256 258 260 262 264 266 268 270 272 274 276 279 281 283 285 286 286 287 287 288 288 289 289 289 289 290 290 291 291 292 292 293 293 293 293 293 293 293 293 292 292 292 291 291 290 290 289 289 288 287 286 286 285 285 284 284 284 284 283 283 283 283 283 282 282 282 281 281 280 279 278 278 277 275 273 270 268 266 266 265 264 263 262
253 255 257 259 261 263 265 267 269 271 273 276 278 280 282 283 284 285 286 287 287 288 288 289 289 290 290 291 291 292 292 292 292 292 292 292 292 292 292 292 292 292 292 291 291 290 290 289 289 288 288 287 286 285 284 284 283 283 282 282 282 282 282 282 282 281 281 281 281 281 280 279 278 277 276 274 271 268 266 264 263 263 262 261 259
254 256 258 260 262 263 265 267 270 272 275 277 279 281 282 284 285 286 287 287 288 289 289 290 291 291 291 291 292 292 292 292 292 292 292 292 293 293 292 292 292 291 291 291 291 291 291 291 291 291 290 289 288 287 285 284 283 282 282 282 282 282 282 281 281 281 280 280 279 280 281 281 280 278 275 273 270 267 264 262 261 261 260 258 257
255 257 258 260 262 264 266 269 271 274 276 278 280 282 283 285 286 287 288 289 290 290 291 291 291 291 291 291 292 292 292 292 293 293 293 293 293 293 292 292 292 292 293 293 294 294 295 295 295 296 295 294 293 291 289 286 284 283 283 282 282 282 282 282 281 281 280 280 279 279 281 282 282 280 276 273 270 266 263 260 259 257 256 254 254
257 258 259 261 263 266 269 271 274 276 279 281 283 284 285 287 288 289 289 290 290 290 291 291 291 291 291 292 292 292 292 293 293 293 293 293 293 293 293 293 294 294 295 296 296 297 297 298 298 299 299 298 298 296 294 291 288 285 284 283 282 282 282 282 281 281 281 280 280 281 281 283 283 282 278 273 269 265 261 257 255 253 251 250 252
259 260 262 264 267 269 272 274 277 279 281 283 285 286 287 288 289 289 290 290 290 291 291 291 291 292 292 292 292 293 293 293 293 293 293 293 293 293 294 295 295 296 296 297 297 297 298 298 298 299 299 299 299 298 297 295 293 290 287 285 283 282 282 282 282 282 281 281 281 281 282 282 284 283 279 273 268 264 258 254 251 250 248 249 251
262 264 266 268 271 273 276 278 280 282 284 285 286 287 288 288 289 290 290 291 291 291 291 291 292 292 292 292 293 293 293 294 294 293 293 293 294 294 295 296 296 296 297 297 297 297 298 298 298 299 299 299 298 297 296 295 294 292 290 287 285 284 283 282 282 282 282 281 281 281 281 282 283 282 278 272 266 260 255 250 248 246 246 248 250
Height
3121 3122 3123 3123 3124 3125 3125 3125 3126 3126 3125 3126 3126 3126 3126 3126 3126 3126 3126 3126 3126 3126 3126 3126 3126 3125 3124 3123 3123 3123 3123 3123 3123 3123 3123 3123 3123 3123 3123 3123 3122 3122 3122 3121 3121 3121 3120 3120 3120 3120 3120 3120 3120 3120 3121 3121 3122 3122 3122 3122 3121 3121 3120 3119 3117 3116 3115 3113 3111 3109 3106 3104 3102 3100 3096 3093 3091 3087 3084 3081 3079 3076 3073 3070 3067
3117 3117 3118 3119 3119 3120 3121 3121 3121 3121 3121 3121 3121 3121 3121 3121 3121 3121 3121 3121 3121 3121 3121 3121 3121 3120 3119 3118 3118 3118 3118 3118 3118 3118 3118 3118 3118 3118 3118 3118 3117 3117 3117 3117 3116 3116 3116 3115 3115 3115 3115 3115 3116 3116 3117 3118 3118 3118 3118 3118 3118 3117 3116 3115 3114 3112 3111 3109 3107 3105 3103 3100 3098 3096 3093 3090 3087 3084 3081 3079 3076 3073 3070 3067 3064
3112 3113 3114 3114 3115 3116 3116 3117 3117 3117 3117 3117 3117 3117 3117 3117 3117 3116 3116 3116 3116 3116 3117 3116 3116 3116 3115 3114 3114 3113 3113 3113 3113 3113 3113 3113 3113 3112 3112 3112 3112 3112 3112 3112 3111 3111 3111 3111 3111 3111 3111 3111 3112 3113 3113 3114 3114 3115 3115 3115 3114 3114 3113 3112 3110 3108 3107 3105 3103 3101 3099 3097 3094 3092 3090 3087 3084 3082 3079 3076 3073 3070 3067 3064 3061
3108 3109 3110 3110 3111 3112 3112 3112 3112 3112 3113 3113 3112 3113 3113 3112 3112 3112 3111 3111 3111 3111 3111 3112 3112 3111 3111 3110 3110 3109 3109 3108 3108 3108 3108 3108 3108 3107 3107 3107 3107 3107 3107 3107 3106 3106 3106 3106 3106 3106 3107 3107 3108 3109 3110 3110 3111 3111 3111 3111 3111 3110 3109 3108 3107 3105 3103 3101 3099 3097 3095 3093 3091 3089 3086 3084 3081 3079 3076 3074 3070 3067 3064 3061 3058
3104 3105 3106 3106 3107 3107 3108 3108 3108 3108 3108 3108 3108 3108 3107 3107 3107 3107 3106 3106 3106 3107 3107 3107 3107 3107 3106 3106 3105 3105 3104 3104 3103 3103 3103 3103 3103 3103 3103 3102 3102 3102 3102 3101 3101 3100 3100 3101 3102 3102 3103 3104 3105 3106 3106 3107 3107 3108 3108 3107 3107 3106 3106 3104 3103 3101 3099 3097 3095 3093 3091 3089 3087 3085 3083 3081 3078 3076 3073 3071 3068 3064 3061 3058 3055
3100 3101 3102 3102 3102 3103 3103 3103 3104 3104 3104 3103 3103 3103 3103 3103 3102 3102 3102 3102 3102 3102 3102 3103 3102 3102 3101 3101 3100 3100 3099 3099 3098 3098 3099 3099 3099 3099 3098 3097 3097 3096 3096 3096 3096 3095 3096 3096 3097 3098 3099 3100 3101 3102 3102 3103 3104 3104 3104 3104 3103 3103 3102 3100 3099 3097 3095 3093 3091 3089 3087 3085 3083 3081 3079 3077 3075 3072 3070 3068 3065 3061 3058 3055 3052
3097 3098 3098 3098 3098 3098 3099 3099 3099 3099 3099 3099 3099 3099 3098 3099 3098 3098 3098 3098 3098 3098 3098 3098 3097 3097 3096 3096 3095 3095 3094 3094 3093 3094 3095 3095 3095 3094 3094 3094 3093 3093 3092 3092 3092 3091 3091 3092 3093 3094 3095 3097 3097 3098 3099 3100 3100 3100 3100 3100 3099 3099 3098 3096 3095 3093 3091 3089 3087 3085 3083 3082 3079 3077 3075 3073 3071 3069 3067 3065 3062 3059 3055 3052 3049
3094 3094 3094 3094 3094 3094 3095 3095 3095 3095 3095 3095 3094 3094 3094 3094 3094 3094 3094 3093 3094 3093 3093 3093 3092 3092 3092 3091 3090 3090 3089 3089 3089 3089 3090 3091 3091 3090 3090 3090 3091 3090 3089 3089 3089 3088 3088 3088 3089 3091 3092 3093 3094 3095 3095 3096 3096 3096 3096 3096 3095 3094 3093 3092 3090 3089 3087 3085 3083 3081 3079 3077 3075 3073 3071 3069 3067 3065 3063 3061 3059 3056 3052 3048 3046
3090 3091 3091 3091 3091 3091 3091 3091 3091 3091 3091 3091 3090 3090 3090 3090 3090 3090 3089 3089 3089 3089 3089 3088 3088 3087 3087 3087 3086 3085 3085 3085 3085 3085 3085 3086 3086 3086 3086 3087 3088 3087 3086 3086 3085 3084 3084 3084 3086 3087 3089 3090 3091 3091 3092 3092 3093 3092 3092 3091 3091 3090 3089 3087 3086 3084 3083 3081 3079 3077 3075 3073 3071 3069 3067 3065 3063 3061 3059 3057 3055 3052 3048 3045 3042
3087 3087 3087 3088 3088 3088 3088 3088 3088 3088 3087 3087 3087 3087 3087 3086 3086 3086 3086 3085 3085 3085 3085 3084 3084 3083 3083 3082 3082 3081 3081 3081 3081 3081 3082 3083 3082 3082 3083 3084 3084 3083 3083 3082 3081 3081 3080 3081 3082 3084 3085 3086 3087 3088 3088 3089 3089 3088 3088 3087 3087 3086 3084 3083 3082 3080 3078 3077 3075 3073 3071 3069 3067 3065 3063 3061 3059 3057 3056 3053 3051 3048 3045 3042 3039
3084 3084 3085 3085 3085 3085 3085 3085 3085 3085 3085 3085 3085 3084 3084 3084 3084 3083 3083 3082 3082 3081 3081 3080 3080 3080 3079 3079 3078 3078 3078 3078 3077 3078 3080 3080 3079 3079 3079 3079 3079 3079 3079 3079 3078 3077 3077 3078 3080 3081 3082 3083 3084 3084 3085 3085 3085 3084 3083 3083 3082 3081 3080 3079 3077 3076 3074 3072 3071 3069 3067 3065 3063 3061 3059 3057 3055 3054 3052 3050 3047 3044 3042 3039 3036
3081 3082 3082 3082 3082 3082 3082 3082 3082 3082 3082 3082 3082 3082 3081 3081 3080 3080 3079 3079 3078 3078 3078 3077 3077 3076 3076 3075 3075 3075 3075 3074 3074 3075 3075 3076 3076 3076 3076 3077 3077 3077 3076 3075 3075 3075 3075 3075 3077 3078 3079 3080 3080 3081 3081 3081 3080 3080 3079 3078 3078 3077 3076 3074 3073 3071 3070 3068 3066 3064 3062 3061 3059 3057 3055 3053 3051 3050 3048 3045 3043 3040 3037 3035 3032
3079 3079 3079 3079 3079 3079 3079 3079 3079 3079 3079 3079 3079 3078 3078 3077 3077 3077 3076 3076 3075 3075 3074 3074 3074 3073 3073 3072 3072 3072 3071 3071 3071 3071 3071 3072 3072 3072 3073 3074 3074 3074 3073 3073 3072 3072 3072 3073 3074 3075 3076 3076 3076 3077 3077 3077 3076 3075 3075 3074 3073 3072 3071 3070 3068 3067 3065 3064 3062 3060 3058 3056 3054 3053 3051 3049 3047 3046 3044 3041 3039 3037 3034 3031 3028
3076 3076 3076 3076 3076 3076 3076 3076 3076 3076 3076 3076 3076 3075 3075 3074 3074 3073 3073 3072 3072 3072 3071 3071 3071 3070 3070 3070 3069 3069 3069 3069 3068 3068 3068 3068 3069 3069 3070 3070 3070 3070 3070 3070 3070 3069 3070 3070 3071 3072 3072 3072 3073 3073 3073 3072 3071 3071 3070 3070 3069 3068 3067 3065 3064 3062 3061 3059 3057 3056 3054 3052 3050 3048 3047 3045 3043 3042 3040 3038 3035 3033 3030 3027 3024
3072 3072 3072 3072 3072 3072 3072 3073 3073 3073 3073 3073 3072 3072 3072 3071 3071 3070 3070 3070 3070 3069 3069 3068 3068 3068 3067 3067 3067 3067 3067 3066 3066 3066 3065 3065 3066 3066 3067 3067 3067 3068 3067 3067 3067 3067 3067 3067 3067 3068 3068 3069 3069 3069 3068 3067 3067 3066 3066 3065 3065 3064 3062 3061 3060 3058 3056 3055 3053 3051 3050 3047 3046 3044 3042 3040 3039 3037 3036 3033 3031 3029 3027 3024 3021
3067 3068 3068 3068 3068 3068 3069 3069 3070 3070 3069 3069 3069 3069 3069 3069 3068 3068 3068 3067 3067 3067 3066 3066 3065 3065 3065 3065 3064 3064 3064 3064 3064 3063 3063 3062 3063 3064 3064 3064 3064 3064 3064 3064 3064 3064 3064 3064 3064 3064 3064 3064 3064 3064 3063 3063 3062 3062 3062 3061 3060 3059 3058 3056 3055 3053 3051 3050 3048 3047 3045 3043 3041 3040 3038 3035 3034 3033 3031 3029 3027 3025 3023 3021 3018
3063 3064 3064 3064 3064 3065 3065 3066 3066 3066 3066 3066 3066 3066 3066 3066 3065 3065 3065 3064 3064 3064 3063 3063 3062 3062 3061 3061 3061 3060 3060 3061 3061 3061 3060 3060 3060 3061 3061 3061 3061 3061 3061 3061 3061 3061 3061 3061 3061 3060 3060 3060 3060 3059 3058 3058 3058 3058 3058 3057 3056 3055 3054 3052 3050 3049 3047 3045 3044 3042 3040 3038 3037 3035 3033 3030 3029 3028 3026 3025 3023 3021 3019 3017 3014
3059 3060 3060 3060 3060 3061 3061 3062 3062 3062 3063 3063 3063 3063 3062 3062 3062 3062 3061 3061 3060 3060 3059 3059 3058 3058 3057 3057 3056 3057 3057 3057 3058 3058 3058 3058 3058 3058 3058 3058 3059 3058 3058 3058 3058 3057 3057 3057 3056 3055 3055 3055 3055 3054 3054 3054 3054 3054 3053 3052 3051 3050 3049 3047 3045 3044 3042 3040 3039 3038 3036 3034 3032 3030 3028 3025 3024 3023 3021 3020 3018 3016 3014 3012 3010
3054 3054 3055 3055 3056 3056 3057 3057 3058 3058 3058 3059 3059 3059 3058 3058 3058 3058 3057 3057 3056 3056 3055 3055 3054 3054 3053 3053 3053 3054 3054 3054 3055 3055 3055 3055 3055 3055 3055 3055 3055 3055 3054 3054 3053 3053 3053 3052 3051 3051 3051 3050 3050 3050 3050 3050 3049 3049 3049 3047 3046 3046 3044 3041 3040 3039 3037 3036 3034 3033 3031 3029 3027 3025 3023 3020 3019 3017 3016 3015 3013 3011 3010 3008 3006
3047 3048 3049 3050 3051 3051 3052 3052 3053 3053 3054 3054 3054 3054 3054 3054 3054 3054 3053 3053 3052 3052 3051 3051 3051 3051 3051 3051 3051 3051 3051 3052 3052 3052 3052 3052 3052 3052 3051 3051 3050 3050 3049 3049 3048 3048 3048 3047 3046 3046 3046 3046 3045 3045 3045 3045 3045 3044 3043 3042 3042 3041 3038 3035 3035 3034 3032 3030 3029 3028 3026 3024 3022 3020 3018 3015 3013 3012 3011 3010 3008 3006 3005 3003 3001
3042 3043 3043 3045 3046 3046 3047 3048 3048 3049 3049 3050 3050 3050 3050 3050 3050 3050 3049 3049 3049 3049 3048 3048 3048 3048 3048 3048 3048 3048 3048 3049 3049 3049 3048 3048 3048 3047 3046 3046 3046 3045 3044 3044 3044 3043 3043 3042 3042 3042 3041 3041 3041 3040 3040 3039 3039 3039 3038 3037 3037 3035 3032 3030 3030 3029 3027 3025 3024 3023 3021 3019 3017 3015 3013 3011 3009 3007 3006 3005 3003 3002 3000 2998 2997
3037 3037 3038 3040 3041 3042 3043 3044 3044 3045 3046 3046 3046 3046 3046 3046 3046 3046 3046 3045 3045 3045 3045 3045 3045 3045 3045 3044 3044 3045 3045 3045 3045 3045 3044 3043 3043 3042 3042 3041 3041 3040 3040 3039 3039 3039 3038 3037 3037 3036 3036 3036 3035 3034 3034 3033 3033 3033 3033 3032 3031 3028 3027 3025 3024 3023 3021 3020 3019 3018 3016 3014 3012 3010 3008 3006 3004 3003 3002 3000 2999 2997 2996 2994 2992
3033 3033 3034 3035 3037 3038 3039 3040 3041 3041 3042 3042 3042 3042 3042 3042 3042 3042 3042 3042 3042 3042 3042 3041 3041 3041 3041 3041 3041 3041 3041 3041 3041 3040 3039 3038 3038 3037 3037 3037 3036 3036 3035 3035 3035 3034 3033 3032 3032 3031 3031 3030 3029 3028 3028 3027 3027 3027 3027 3026 3025 3023 3021 3020 3019 3018 3016 3015 3014 3013 3012 3009 3007 3005 3004 3002 3000 2999 2997 2995 2994 2992 2991 2989 2987
3030 3030 3030 3032 3034 3035 3036 3037 3037 3037 3037 3038 3037 3037 3037 3037 3038 3038 3038 3038 3038 3038 3038 3038 3038 3038 3038 3038 3038 3038 3038 3038 3037 3037 3036 3035 3034 3034 3033 3033 3032 3031 3031 3030 3030 3029 3028 3028 3027 3026 3026 3025 3024 3023 3022 3021 3021 3021 3021 3020 3019 3017 3015 3014 3014 3012 3011 3010 3009 3008 3006 3004 3002 3000 2999 2998 2996 2994 2992 2990 2988 2987 2985 2984 2982
3027 3027 3028 3029 3030 3031 3032 3032 3032 3033 3033 3033 3033 3033 3033 3033 3034 3034 3034 3035 3035 3035 3035 3035 3035 3035 3035 3035 3035 3035 3035 3035 3034 3033 3033 3032 3031 3031 3030 3029 3028 3027 3026 3025 3025 3024 3024 3023 3023 3022 3021 3020 3019 3018 3017 3016 3016 3016 3015 3014 3012 3010 3009 3009 3008 3007 3005 3004 3004 3002 3001 2999 2996 2995 2993 2992 2990 2988 2987 2985 2983 2982 2980 2978 2977
3024 3024 3025 3026 3027 3027 3027 3028 3028 3028 3028 3028 3029 3029 3030 3030 3030 3031 3031 3032 3032 3032 3032 3032 3032 3032 3032 3032 3032 3031 3031 3031 3030 3029 3029 3028 3027 3026 3025 3025 3024 3023 3022 3021 3020 3019 3019 3018 3018 3017 3016 3015 3014 3012 3011 3011 3010 3009 3008 3007 3006 3004 3004 3003 3003 3001 3000 2999 2998 2997 2995 2993 2991 2989 2988 2986 2984 2983 2981 2979 2978 2976 2975 2973 2972
3020 3021 3022 3022 3023 3024 3024 3024 3024 3024 3025 3025 3025 3026 3026 3026 3027 3027 3027 3028 3028 3028 3028 3028 3028 3028 3028 3028 3028 3028 3028 3027 3026 3025 3025 3024 3023 3022 3020 3020 3019 3017 3017 3016 3015 3014 3013 3013 3012 3011 3011 3010 3008 3007 3006 3005 3003 3002 3001 3000 2999 2998 2998 2997 2996 2995 2994 2993 2992 2990 2989 2987 2985 2984 2982 2980 2978 2977 2975 2973 2972 2970 2969 2967 2966
3017 3018 3019 3019 3020 3021 3021 3021 3021 3021 3021 3022 3022 3022 3023 3023 3023 3024 3024 3024 3024 3025 3025 3025 3025 3025 3025 3024 3024 3024 3023 3022 3021 3021 3020 3019 3018 3017 3016 3014 3013 3012 3011 3010 3009 3008 3007 3007 3006 3006 3005 3004 3003 3001 2999 2998 2997 2995 2994 2993 2993 2992 2991 2990 2990 2989 2988 2986 2985 2984 2982 2980 2979 2977 2975 2974 2972 2971 2969 2967 2966 2964 2963 2961 2960
3014 3015 3016 3016 3017 3018 3018 3018 3018 3019 3019 3019 3019 3020 3020 3020 3021 3021 3021 3021 3021 3021 3021 3021 3021 3020 3020 3020 3019 3019 3018 3017 3016 3015 3014 3014 3013 3012 3011 3009 3008 3007 3006 3005 3004 3002 3001 3001 3000 2999 2999 2998 2996 2995 2993 2992 2990 2989 2987 2986 2985 2984 2984 2983 2982 2982 2981 2979 2977 2976 2975 2974 2972 2971 2969 2967 2966 2964 2962 2961 2960 2958 2956 2955 2954
3011 3012 3012 3013 3014 3014 3015 3015 3015 3016 3016 3017 3017 3017 3017 3017 3017 3017 3018 3018 3017 3017 3017 3017 3016 3016 3015 3014 3014 3013 3012 3011 3011 3010 3009 3008 3008 3006 3005 3004 3002 3001 3000 2999 2998 2996 2996 2995 2994 2993 2992 2991 2990 2988 2987 2986 2984 2982 2981 2980 2978 2977 2976 2975 2974 2974 2972 2971 2970 2969 2968 2966 2965 2964 2962 2960 2959 2957 2955 2954 2953 2952 2950 2949 2948
3008 3008 3009 3009 3010 3010 3011 3011 3012 3012 3013 3013 3013 3014 3014 3014 3014 3013 3013 3013 3013 3013 3012 3012 3011 3011 3010 3009 3008 3008 3007 3006 3006 3005 3004 3003 3002 3001 3000 2998 2997 2996 2995 2994 2992 2991 2990 2990 2988 2987 2986 2984 2983 2982 2981 2979 2978 2976 2975 2973 2971 2970 2968 2967 2966 2965 2963 2962 2961 2960 2959 2959 2958 2956 2955 2953 2951 2950 2948 2947 2946 2945 2944 2944 2943
3003 3004 3004 3005 3005 3006 3006 3007 3007 3008 3008 3008 3009 3009 3009 3009 3009 3009 3009 3008 3008 3007 3007 3007 3006 3006 3005 3004 3004 3003 3002 3001 3001 3000 2999 2998 2996 2995 2994 2993 2992 2991 2990 2988 2987 2986 2985 2984 2982 2981 2980 2978 2977 2976 2974 2972 2971 2970 2968 2966 2964 2963 2961 2960 2958 2956 2954 2953 2952 2951 2951 2951 2950 2948 2947 2945 2944 2942 2941 2940 2939 2938 2937 2937 2937
2998 2999 2999 2999 3000 3001 3001 3002 3002 3003 3003 3004 3004 3004 3004 3004 3004 3004 3004 3003 3003 3003 3002 3002 3001 3001 3000 2999 2999 2998 2997 2996 2995 2994 2993 2992 2991 2989 2988 2987 2986 2985 2984 2982 2981 2980 2979 2977 2975 2974 2973 2972 2970 2969 2967 2966 2964 2963 2961 2959 2957 2956 2954 2952 2949 2947 2946 2945 2944 2942 2942 2942 2941 2940 2939 2937 2936 2935 2934 2932 2932 2931 2931 2931 2930
2993 2994 2994 2994 2995 2996 2996 2997 2998 2998 2998 2999 2999 2999 2999 2999 2999 2999 2999 2999 2998 2998 2997 2997 2996 2995 2995 2994 2993 2993 2992 2991 2990 2989 2988 2986 2985 2984 2982 2982 2981 2979 2978 2976 2975 2974 2973 2971 2969 2968 2966 2965 2963 2961 2960 2958 2957 2955 2953 2952 2950 2948 2946 2944 2941 2939 2938 2937 2935 2934 2933 2933 2932 2931 2930 2929 2927 2926 2926 2925 2925 2924 2924 2924 2923
2989 2989 2989 2989 2990 2990 2991 2992 2992 2993 2993 2993 2993 2993 2994 2994 2994 2994 2994 2993 2993 2992 2992 2991 2991 2990 2989 2989 2988 2987 2986 2985 2984 2983 2981 2980 2979 2978 2977 2976 2974 2973 2971 2970 2969 2968 2966 2964 2963 2961 2960 2958 2956 2954 2953 2951 2949 2948 2946 2944 2943 2941 2938 2936 2934 2933 2931 2929 2927 2926 2925 2924 2923 2923 2921 2920 2919 2918 2918 2918 2918 2917 2917 2916 2916
2984 2984 2984 2984 2984 2985 2986 2986 2987 2987 2987 2988 2988 2988 2988 2988 2988 2988 2988 2988 2987 2987 2987 2986 2985 2985 2984 2983 2982 2980 2979 2978 2977 2976 2975 2973 2972 2971 2970 2969 2968 2966 2965 2963 2962 2960 2959 2957 2956 2954 2952 2951 2949 2947 2945 2944 2942 2940 2938 2936 2934 2933 2931 2929 2927 2925 2923 2922 2920 2919 2918 2917 2916 2915 2913 2912 2911 2911 2911 2911 2910 2909 2909 2909 2909
2979 2979 2979 2979 2979 2980 2980 2981 2981 2982 2982 2982 2983 2983 2983 2983 2983 2983 2982 2982 2982 2981 2981 2980 2980 2979 2978 2977 2976 2974 2973 2971 2970 2969 2967 2966 2965 2964 2963 2962 2960 2959 2958 2956 2955 2953 2951 2950 2948 2947 2945 2943 2942 2940 2938 2936 2934 2932 2931 2928 2926 2924 2922 2921 2919 2917 2915 2914 2913 2912 2911 2910 2909 2907 2906 2904 2904 2903 2903 2903 2902 2902 2902 2902 2902
2975 2975 2975 2975 2975 2975 2975 2975 2976 2976 2976 2977 2977 2977 2977 2977 2977 2976 2976 2976 2975 2975 2974 2974 2973 2972 2971 2970 2969 2968 2966 2965 2964 2962 2961 2959 2958 2957 2956 2954 2953 2952 2951 2949 2947 2946 2944 2943 2941 2939 2937 2936 2934 2932 2930 2928 2926 2925 2923 2921 2919 2916 2914 2913 2911 2909 2907 2906 2905 2904 2903 2902 2900 2899 2898 2897 2896 2896 2895 2895 2895 2894 2894 2894 2895
2971 2971 2971 2971 2971 2971 2971 2971 2971 2971 2971 2971 2971 2971 2971 2971 2970 2970 2969 2969 2968 2968 2967 2966 2966 2965 2964 2963 2962 2961 2960 2959 2958 2956 2955 2953 2952 2950 2949 2947 2946 2944 2943 2941 2940 2938 2937 2935 2933 2931 2930 2928 2926 2924 2923 2921 2919 2917 2915 2913 2911 2909 2907 2905 2903 2902 2900 2898 2897 2896 2894 2893 2892 2891 2890 2889 2888 2888 2888 2887 2887 2887 2887 2887 2888
2967 2967 2967 2967 2967 2966 2966 2966 2966 2966 2966 2966 2966 2965 2965 2965 2964 2963 2963 2962 2961 2960 2960 2959 2958 2958 2957 2956 2955 2954 2953 2952 2951 2950 2949 2947 2945 2944 2942 2940 2939 2937 2935 2934 2932 2930 2929 2927 2926 2924 2922 2920 2919 2917 2915 2913 2911 2909 2907 2905 2903 2901 2899 2897 2895 2894 2892 2891 2889 2888 2886 2885 2884 2883 2882 2881 2881 2880 2880 2880 2880 2880 2880 2881 2881
2963 2963 2963 2963 2962 2962 2961 2961 2961 2960 2960 2960 2959 2959 2959 2958 2958 2957 2956 2955 2954 2953 2953 2952 2951 2950 2949 2948 2948 2947 2946 2945 2944 2942 2941 2940 2938 2937 2935 2933 2931 2929 2928 2926 2924 2923 2921 2919 2918 2916 2915 2913 2911 2909 2907 2905 2903 2900 2899 2897 2895 2893 2891 2889 2887 2886 2884 2883 2881 2880 2878 2877 2876 2875 2874 2874 2873 2873 2872 2872 2873 2873 2873 2874 2874
2958 2958 2958 2957 2957 2957 2956 2956 2955 2955 2954 2954 2953 2953 2952 2952 2951 2950 2949 2949 2948 2947 2946 2945 2944 2943 2942 2941 2940 2939 2938 2937 2936 2934 2933 2932 2930 2929 2927 2925 2923 2922 2920 2918 2916 2915 2913 2911 2910 2908 2906 2905 2903 2901 2899 2896 2894 2892 2890 2888 2886 2884 2883 2881 2879 2878 2876 2874 2873 2871 2870 2869 2868 2868 2867 2866 2865 2865 2865 2865 2866 2866 2867 2867 2868
2953 2953 2952 2952 2952 2951 2951 2950 2950 2949 2949 2948 2947 2947 2946 2945 2945 2944 2943 2942 2941 2940 2939 2937 2936 2935 2934 2933 2932 2931 2930 2929 2928 2926 2925 2924 2922 2921 2919 2917 2915 2913 2912 2910 2908 2906 2904 2902 2901 2899 2898 2896 2894 2892 2890 2888 2885 2883 2881 2879 2877 2876 2874 2873 2871 2869 2867 2866 2864 2863 2862 2861 2861 2860 2859 2858 2858 2858 2858 2858 2859 2859 2860 2860 2861
2947 2947 2947 2947 2946 2946 2945 2945 2944 2944 2943 2942 2942 2941 2940 2939 2938 2937 2936 2935 2934 2933 2932 2930 2929 2928 2927 2926 2925 2924 2922 2921 2920 2919 2917 2916 2914 2913 2911 2909 2907 2905 2904 2902 2899 2897 2895 2893 2891 2890 2888 2887 2885 2883 2881 2879 2876 2874 2872 2870 2868 2867 2866 2864 2863 2861 2859 2857 2856 2855 2854 2853 2853 2852 2851 2851 2850 2850 2851 2851 2852 2852 2853 2854 2855
2941 2941 2941 2941 2941 2940 2940 2939 2939 2938 2937 2937 2936 2935 2934 2933 2932 2931 2930 2928 2927 2926 2924 2923 2922 2920 2919 2918 2917 2916 2914 2913 2912 2911 2909 2908 2906 2905 2903 2901 2899 2897 2895 2893 2891 2889 2887 2884 2882 2881 2879 2878 2876 2874 2871 2869 2867 2865 2863 2861 2859 2858 2857 2855 2854 2852 2850 2849 2848 2847 2846 2845 2845 2844 2844 2843 2842 2842 2843 2844 2845 2845 2846 2847 2848
2934 2934 2934 2934 2934 2934 2933 2933 2933 2932 2931 2931 2930 2929 2928 2927 2925 2924 2923 2921 2920 2919 2917 2916 2914 2913 2912 2911 2909 2908 2907 2905 2904 2903 2901 2900 2898 2896 2895 2893 2891 2889 2887 2885 2882 2880 2878 2875 2873 2871 2869 2867 2866 2864 2862 2860 2858 2855 2853 2851 2849 2848 2847 2846 2844 2843 2842 2840 2839 2839 2838 2837 2837 2836 2836 2835 2834 2835 2836 2837 2837 2838 2839 2841 2842
2927 2927 2927 2927 2927 2927 2927 2926 2926 2925 2925 2924 2923 2922 2921 2920 2919 2918 2916 2915 2913 2912 2910 2909 2907 2906 2905 2903 2902 2900 2899 2898 2896 2895 2893 2891 2890 2888 2886 2884 2882 2880 2878 2876 2873 2871 2869 2866 2864 2861 2859 2857 2855 2853 2851 2849 2847 2845 2844 2842 2840 2839 2838 2836 2835 2834 2833 2832 2831 2830 2830 2829 2829 2829 2828 2827 2827 2827 2828 2829 2831 2832 2833 2835 2836
2920 2920 2920 2920 2920 2920 2919 2919 2919 2918 2918 2917 2916 2915 2914 2913 2912 2911 2910 2909 2907 2905 2904 2902 2900 2899 2898 2896 2894 2893 2891 2890 2888 2887 2885 2883 2881 2880 2878 2876 2874 2872 2870 2867 2865 2862 2860 2858 2855 2853 2850 2848 2845 2843 2841 2839 2837 2835 2834 2832 2831 2829 2828 2827 2826 2825 2824 2823 2822 2822 2821 2821 2821 2821 2820 2820 2820 2820 2821 2822 2824 2826 2827 2829 2830
2913 2913 2913 2913 2913 2912 2912 2912 2911 2911 2911 2910 2909 2909 2908 2907 2906 2905 2904 2902 2900 2899 2897 2895 2894 2892 2890 2889 2887 2885 2884 2882 2880 2879 2877 2875 2873 2871 2870 2868 2865 2863 2861 2859 2857 2854 2852 2850 2847 2844 2842 2839 2837 2834 2832 2829 2827 2825 2824 2822 2821 2820 2818 2817 2817 2816 2815 2814 2814 2813 2813 2813 2813 2812 2812 2812 2812 2813 2814 2816 2817 2819 2821 2823 2824
2906 2906 2906 2906 2905 2905 2905 2905 2904 2904 2904 2903 2903 2902 2902 2901 2900 2898 2897 2895 2894 2892 2890 2889 2887 2885 2883 2881 2880 2878 2876 2875 2873 2871 2869 2867 2866 2864 2862 2860 2858 2855 2853 2851 2849 2846 2844 2841 2839 2836 2833 2831 2828 2825 2823 2820 2818 2816 2814 2813 2812 2810 2809 2808 2808 2807 2806 2805 2805 2805 2804 2804 2804 2804 2804 2805 2805 2806 2808 2809 2811 2813 2815 2817 2819
2900 2900 2899 2899 2899 2899 2899 2898 2898 2897 2897 2896 2896 2895 2895 2894 2893 2891 2890 2888 2887 2885 2883 2881 2880 2878 2876 2874 2872 2871 2869 2867 2865 2863 2862 2860 2858 2856 2854 2852 2850 2847 2845 2843 2841 2838 2835 2833 2830 2827 2825 2822 2819 2817 2814 2812 2809 2807 2805 2804 2803 2802 2800 2799 2798 2798 2797 2796 2796 2796 2796 2796 2796 2796 2797 2797 2798 2800 2801 2803 2805 2807 2809 2811 2813